Location: Newark
(7.0858°N, 171.3717°E)
Time: 13:45:27
(UTC+00:00)

Vanguard 1 Rocket - Pass Details

Date: 05 December 2020
Orbit: 655 x 4222 km, 34.3° (Epoch: 23 January)

Event Time Altitude Azimuth Distance (km) Brightness Sun altitude
Rises 11:39:13 0° 258° (WSW) 6,693 12.0 -71.0°
Reaches altitude 10° 11:43:21 10° 264° (W) 6,073 11.6 -71.6°
Enters shadow 11:49:00 24° 275° (W) 5,394 11.2 -72.3°
Exits shadow 12:31:28 - 48° (NE) 7,384 11.9 -74.6°
Sets 12:33:59 0° 51° (NE) 7,720 12.0 -74.5°
